Weather observations for the past three days for
Beverly, Beverly Municipal Airport
Imperial (Metric)
Date Time (edt) Wind (mph) Vis. (mi.) Weather Sky Cond. Temperature (ºF) Relative Humidity Wind Chill (°F) Heat Index (°F) Pressure Precipitation (in)
Air Dwpt 6 hour altimeter (in) sea level (mb) 1 hr 3 hr 6 hr
Max. Min.
22 11:53 NE 9 10.00 Overcast OVC014 68 62.1 81% 30.06 1017.2
22 10:53 NE 6 10.00 Overcast OVC011 66.9 63 87% 30.05 1017.1
22 09:53 E 3 10.00 Overcast OVC015 66 64 93% 30.07 1017.8
22 08:53 E 6 4.00 Fog/Mist OVC008 64.9 63 93% 30.07 1017.8
22 07:53 NE 6 10.00 Overcast OVC013 66 63 66 64 90% 30.07 1017.8
22 06:53 E 3 10.00 Overcast OVC014 66 63 90% 30.07 1017.8
22 05:53 E 5 10.00 Overcast OVC017 64.9 62.1 90% 30.06 1017.5
22 04:53 Calm 10.00 Overcast OVC016 66 64 93% 30.07 1017.7
22 03:53 Calm 10.00 Overcast OVC016 64.9 63 93% 30.08 1018.1
22 02:53 Calm 10.00 Overcast OVC019 64.9 63 93% 30.09 1018.3
22 01:53 Calm 10.00 Overcast OVC022 64.9 63 66 64 93% 30.1 1018.7
22 00:53 N 5 10.00 Fair CLR 64 62.1 93% 30.1 1018.8
21 23:53 Calm 10.00 Mostly Cloudy BKN026 64.9 63 93% 30.11 1019.0
21 22:53 Calm 10.00 Fair CLR 64.9 63 93% 30.13 1019.7
21 21:53 NE 5 10.00 Overcast OVC030 66 63 90% 30.15 1020.5
21 20:53 SE 3 10.00 Overcast SCT042 OVC060 64.9 62.1 90% 30.15 1020.5
21 19:53 SW 5 5.00 Light Rain Fog/Mist OVC037 66 62.1 77 64.9 87% 30.18 1021.3 0.1 0.1
21 18:53 NE 6 10.00 Overcast OVC043 69.1 60.1 73% 30.15 1020.3
21 17:53 Vrbl 6 10.00 Fair CLR 70 60.1 71% 30.15 1020.3
21 16:53 NE 10 10.00 Fair CLR 73.9 61 64% 30.14 1020.2
21 15:53 NE 9 10.00 Fair CLR 75.9 63 64% 78 30.15 1020.5
21 14:53 NE 10 10.00 Fair CLR 75 63 66% 77 30.17 1021.0
21 13:53 E 9 10.00 Fair CLR 75.9 63 80.1 73.9 64% 78 30.18 1021.4
21 12:53 NE 12 10.00 Fair CLR 75 62.1 64% 77 30.19 1021.6
21 11:53 NE 13 G 21 10.00 Fair CLR 75.9 63 64% 78 30.2 1021.9
21 10:53 N 14 G 24 10.00 A Few Clouds FEW020 78.1 69.1 74% 80 30.19 1021.9
21 09:53 NE 13 10.00 Fair CLR 79 70 74% 82 30.17 1021.2
21 08:53 N 7 10.00 Fair CLR 78.1 72 82% 80 30.17 1021.1
21 07:53 NW 6 10.00 Fair CLR 75 72 75 68 90% 74 30.18 1021.2
21 06:53 Calm 9.00 Fair CLR 71.1 71.1 100% 30.17 1020.9
21 05:53 Calm 10.00 Fair CLR 70 68 93% 30.17 1020.9
21 04:53 Calm 10.00 Fair CLR 69.1 66.9 93% 30.16 1020.7
21 03:53 Calm 10.00 Fair CLR 69.1 66.9 93% 30.16 1020.7
21 02:53 W 6 10.00 Fair CLR 70 68 93% 30.16 1020.7
21 01:53 SW 6 10.00 Fair CLR 70 68 86 70 93% 30.16 1020.8 0.55
21 00:53 SW 9 8.00 Mostly Cloudy BKN003 72 71.1 97% 30.17 1021.1
20 23:53 NW 3 7.00 Fair CLR 72 71.1 97% 30.18 1021.2
20 22:53 Calm 8.00 Light Rain FEW110 73 71.1 94% 30.2 1021.9 0.09 0.55
20 21:53 Calm 3.00 Thunderstorm in Vicinity Rain Fog/Mist OVC095 73 71.1 94% 30.24 1023.5 0.13
20 20:53 W 8 G 22 5.00 Thunderstorm in Vicinity Light Rain Fog/Mist SCT026 BKN055 OVC100 73 71.1 94% 30.23 1023.1 0.33
20 19:53 N 12 G 21 10.00 Partly Cloudy SCT045 86 73 95 86 65% 93 30.15 1020.3
20 18:53 W 8 10.00 Fair CLR 90 73.9 59% 99 30.14 1019.9
20 17:53 W 10 10.00 Partly Cloudy FEW002 SCT055 91.9 73 54% 101 30.13 1019.5
20 16:53 SW 13 10.00 Fair CLR 93.9 72 49% 102 30.12 1019.2
20 15:53 SW 9 G 20 10.00 Partly Cloudy FEW055 SCT080 93.9 72 49% 102 30.14 1019.8
20 14:53 SW 10 10.00 Mostly Cloudy SCT055 BKN070 BKN090 95 72 47% 103 30.16 1020.7
20 13:53 NW 7 10.00 Fair CLR 93 73.9 93.9 79 54% 103 30.18 1021.4
20 12:53 W 9 10.00 Fair CLR 91.9 73 54% 101 30.2 1022.0
20 11:53 NW 8 10.00 Fair CLR 90 73 58% 98 30.21 1022.5
20 10:53 W 8 10.00 Fair CLR 87.1 73 63% 95 30.22 1022.6
20 09:53 Vrbl 6 10.00 Fair CLR 84.9 72 65% 91 30.22 1022.7
20 08:53 W 6 10.00 Fair CLR 82 70 67% 86 30.22 1022.6
20 07:53 W 6 10.00 Fair CLR 79 66.9 79 73.9 67% 81 30.23 1022.9
20 06:53 SW 8 10.00 Fair CLR 75.9 64.9 69% 78 30.23 1023.1
20 05:53 SW 5 10.00 Fair CLR 73.9 64.9 74% 30.22 1022.6
20 04:53 SW 6 10.00 Fair CLR 75 66.9 76% 76 30.22 1022.5
20 03:53 SW 6 10.00 Fair CLR 75 69.1 82% 75 30.21 1022.4
20 02:53 SW 8 10.00 Fair CLR 75.9 70 82% 77 30.22 1022.6
20 01:53 SW 7 10.00 Fair CLR 78.1 71.1 86 78.1 79% 80 30.22 1022.6
20 00:53 SW 8 10.00 Fair CLR 78.1 71.1 79% 80 30.22 1022.8
19 23:53 SW 10 10.00 Fair CLR 79 72 79% 82 30.23 1023.0
19 22:53 SW 8 10.00 Fair CLR 80.1 73 79% 84 30.25 1023.6
19 21:53 SW 13 G 18 10.00 Fair CLR 82.9 73 72% 89 30.25 1023.6
19 20:53 SW 10 10.00 Fair CLR 84 73 70% 90 30.22 1022.8
19 19:53 SW 14 G 23 10.00 Fair CLR 86 73.9 93.9 86 67% 94 30.23 1023.0
19 18:53 SW 10 10.00 Fair CLR 88 73.9 63% 97 30.22 1022.8
19 17:53 W 12 10.00 Fair CLR 90 73.9 59% 99 30.21 1022.4
19 16:53 W 10 10.00 Fair CLR 91.9 73 54% 101 30.21 1022.3
19 15:53 W 7 10.00 Fair CLR 91.9 72 52% 100 30.23 1022.9
19 14:53 SW 10 10.00 A Few Clouds FEW049 91.9 73 54% 101 30.23 1022.9
19 13:53 SW 8 G 18 10.00 Fair CLR 91.9 73.9 93 75 56% 102 30.24 1023.3
19 12:53 W 9 10.00 Fair CLR 91 73.9 57% 101 30.25 1023.7
Date Time (edt) Wind (mph) Vis. (mi.) Weather Sky Cond. Air Dwpt Max. Min. Relative Humidity Wind Chill (°F) Heat Index (°F) altimeter (in) sea level (mb) 1 hr 3 hr 6 hr
6 hour
Temperature (ºF) Pressure Precipitation (in)